This is the latest recevied weather packets stored in our database for station/object KH6DH-13. If no packets are shown the sender has not sent any weather packets the latest 10 day(s).
| Time | Temp. | Humidity | Pressure | Rain* | Wind** | Luminosity | Snow |
|---|---|---|---|---|---|---|---|
| 1788381159 | 27.22° C | - | - | 0 mm | 1.34 m/s, 51° | - | - |
| 1788380554 | 26.67° C | - | - | 1.27 mm | 2.24 m/s, 134° | - | - |
| 1788379951 | 26.67° C | - | - | 1.27 mm | 1.34 m/s, 3° | - | - |
| 1788379347 | 26.67° C | - | - | 1.27 mm | 3.13 m/s, 145° | - | - |
| 1788378743 | 26.67° C | - | - | 1.27 mm | 2.24 m/s, 37° | - | - |
| 1788378139 | 26.11° C | - | - | 1.27 mm | 2.68 m/s, 45° | - | - |
| 1788377535 | 25.56° C | - | - | 4.57 mm | 1.79 m/s, 329° | - | - |
| 1788376934 | 25.56° C | - | - | 4.57 mm | 0.45 m/s, 263° | - | - |
| 1788376333 | 25.56° C | - | - | 4.57 mm | 0.45 m/s, 357° | - | - |
| 1788375732 | 25° C | - | - | 4.57 mm | 2.24 m/s, 104° | - | - |
| 1788375131 | 25° C | - | - | 4.57 mm | 3.13 m/s, 14° | - | - |
| 1788374530 | 25.56° C | - | - | 4.57 mm | 1.34 m/s, 60° | - | - |
| 1788373929 | 25.56° C | - | - | 1.52 mm | 1.79 m/s, 76° | - | - |
| 1788373328 | 25° C | - | - | 1.52 mm | 0 m/s | - | - |
| 1788372727 | 25° C | - | - | 1.52 mm | 0 m/s | - | - |
| 1788372126 | 25° C | - | - | 1.52 mm | 0 m/s | - | - |
| 1788371525 | 25° C | - | - | 1.52 mm | 0.89 m/s, 55° | - | - |
| 1788370922 | 25° C | - | - | 1.52 mm | 0 m/s | - | - |
| 1788370321 | 25.56° C | - | - | 0 mm | 2.68 m/s, 114° | - | - |
| 1788369720 | 25° C | - | - | 0 mm | 0 m/s | - | - |
| 1788369119 | 25.56° C | - | - | 0 mm | 1.79 m/s, 97° | - | - |
| 1788368518 | 25° C | - | - | 0 mm | 0 m/s | - | - |
| 1788367917 | 25° C | - | - | 0 mm | 0.45 m/s, 309° | - | - |
| 1788367316 | 25° C | - | - | 0 mm | 1.34 m/s, 86° | - | - |
| 1788366715 | 25° C | - | - | 0.76 mm | 0.45 m/s, 100° | - | - |
* Rain latest hour (hover to see other rain measurements)
** Current wind speed in m/s (hover to see current wind gust speed)